Probability
35 42 39 35 35 35 32 29 32 29 32 32 32 29 26 29 35 35 32 29 29 32 32 32 32 32 32 29 23 23 23 19 16 13 13 13 10 6 0 0 3 3 3
42 45 42 32 39 39 35 35 35 29 32 35 32 32 35 39 35 35 35 35 35 35 35 35 32 29 26 26 26 16 16 16 13 13 10 13 10 10 3 0 0 3 0
42 48 42 39 35 35 35 35 35 32 29 32 39 39 39 39 35 35 35 32 32 29 32 32 32 29 29 26 23 23 19 19 16 10 10 10 6 6 6 0 0 0 0
45 45 45 45 42 35 32 32 32 32 29 32 32 32 26 26 26 26 29 26 26 26 26 29 32 32 32 29 29 23 23 23 16 16 10 13 13 6 3 3 0 0 0
45 45 45 42 39 39 39 35 39 35 35 32 29 23 23 23 26 26 26 26 26 29 29 29 29 29 29 32 29 26 23 23 23 19 13 10 13 10 3 3 3 3 0
42 35 39 48 39 42 42 39 35 39 35 32 23 23 23 23 23 26 23 23 23 23 26 29 26 26 26 23 16 13 13 19 19 19 16 13 10 6 6 6 3 3 3
39 39 39 42 42 35 39 39 35 32 26 26 26 23 19 19 23 19 0 6 13 16 19 19 26 32 26 26 16 13 13 3 3 13 16 16 19 6 6 6 6 3 6
35 35 39 42 42 39 42 42 32 29 26 23 23 23 23 23 19 10 3 0 10 16 19 19 16 19 26 23 19 23 16 16 10 6 10 10 13 6 0 3 0 0 3
32 35 42 39 39 35 39 39 29 29 26 23 23 23 23 19 16 13 0 3 6 6 13 13 16 19 19 10 13 13 19 23 10 6 6 3 3 3 0 0 0 3 0
35 39 39 39 39 39 39 39 29 26 26 26 23 23 23 23 19 10 0 3 3 13 16 19 16 13 10 3 10 16 16 19 10 6 0 0 0 0 0 0 0 0 0
26 26 29 32 29 32 32 32 29 26 26 26 26 23 23 23 19 10 6 3 13 13 13 13 23 10 3 0 0 10 16 10 6 6 6 3 3 0 0 0 0 0 0
29 26 29 32 32 35 29 32 29 26 23 23 23 23 23 23 23 16 10 0 6 16 16 13 13 6 0 0 0 3 3 0 3 6 6 6 3 3 6 3 0 0 0
35 32 32 26 29 32 29 32 26 26 23 23 23 23 23 23 23 19 10 0 0 0 16 6 3 0 0 0 0 0 0 0 3 3 6 6 3 3 0 0 3 3 3
32 32 29 26 26 26 29 32 26 26 29 29 23 26 26 26 23 19 16 3 0 0 0 0 0 0 0 0 0 0 0 0 3 3 3 6 3 3 3 0 3 6 3
32 29 29 23 23 26 29 29 23 26 26 26 29 26 26 26 23 16 16 13 6 3 0 0 3 3 3 3 3 0 0 0 0 3 3 3 3 0 3 3 0 0 3
26 29 26 23 23 23 19 16 10 16 19 10 10 13 16 13 16 6 3 3 0 0 0 0 6 6 6 6 6 6 0 0 0 0 0 3 0 0 0 0 0 0 0
29 19 16 19 19 19 13 16 16 10 3 6 3 6 3 3 3 0 0 0 0 0 0 3 6 3 3 3 0 0 0 0 0 0 0 0 0 0 0 0 0 0 0
26 23 19 19 19 19 19 16 13 13 16 13 6 0 3 3 0 0 0 0 0 0 0 0 3 3 3 3 3 0 0 0 0 3 3 0 0 0 0 0 0 0 0
19 16 16 16 16 19 19 13 16 16 16 13 6 3 0 0 0 0 0 0 0 0 0 0 3 3 3 3 0 0 0 3 3 3 3 3 0 0 0 0 0 0 0
23 16 19 13 13 13 13 13 10 13 10 3 6 3 0 0 0 0 0 0 0 0 0 3 3 3 3 3 0 0 3 3 3 6 3 3 0 0 0 0 0 0 0
23 19 13 13 13 13 10 10 6 6 6 6 6 3 0 0 0 0 0 0 3 3 0 3 3 3 0 0 0 3 3 6 6 6 3 3 0 0 0 0 0 3 3
23 16 16 13 10 10 10 10 10 6 6 3 3 0 0 0 0 0 0 3 3 0 0 0 0 0 0 0 3 3 6 6 3 3 3 3 0 0 0 0 3 3 3
23 13 10 6 6 6 6 10 6 6 6 3 3 0 0 0 0 0 0 0 0 0 0 0 0 0 6 3 3 6 3 3 3 3 3 3 3 0 0 0 0 0 0
6 6 10 10 6 6 6 6 6 6 6 3 3 0 0 0 0 0 0 0 0 0 0 0 0 0 0 0 3 3 3 3 3 3 3 3 0 0 0 0 0 0 0
6 6 6 6 6 10 6 6 6 6 6 0 0 0 0 0 0 0 0 0 0 0 0 0 0 0 0 0 0 0 0 0 0 3 3 3 0 0 0 0 0 0 0
0 0 3 6 6 6 10 6 6 6 6 6 3 0 0 0 0 0 0 0 0 0 0 0 0 0 0 0 0 0 0 0 0 0 3 0 0 0 0 0 0 0 0
Height
5909 5909 5908 5907 5906 5905 5905 5904 5903 5903 5902 5901 5900 5899 5897 5896 5895 5893 5892 5890 5889 5888 5886 5884 5882 5880 5878 5876 5875 5873 5871 5869 5867 5865 5862 5860 5857 5855 5852 5849 5847 5844 5842
5908 5907 5906 5905 5904 5903 5902 5902 5901 5900 5899 5898 5897 5896 5894 5893 5892 5890 5889 5887 5886 5884 5883 5881 5879 5877 5875 5873 5871 5869 5867 5865 5863 5861 5858 5856 5853 5851 5848 5845 5843 5840 5837
5905 5904 5903 5902 5901 5901 5900 5899 5898 5897 5895 5894 5893 5892 5891 5889 5888 5886 5885 5883 5882 5880 5879 5877 5875 5873 5871 5869 5866 5864 5862 5860 5858 5856 5854 5851 5848 5846 5843 5840 5838 5835 5832
5902 5901 5900 5899 5898 5897 5896 5895 5894 5893 5892 5891 5890 5888 5887 5885 5884 5882 5880 5878 5877 5876 5874 5872 5870 5869 5866 5864 5862 5860 5857 5855 5852 5850 5848 5845 5843 5840 5837 5835 5832 5829 5827
5899 5898 5897 5896 5895 5894 5892 5891 5890 5889 5888 5887 5885 5884 5882 5880 5879 5877 5875 5873 5872 5871 5869 5867 5865 5863 5861 5859 5857 5854 5852 5849 5847 5844 5842 5839 5836 5834 5831 5828 5825 5823 5820
5895 5894 5893 5892 5891 5890 5888 5887 5886 5885 5883 5882 5880 5878 5877 5875 5873 5872 5870 5868 5867 5865 5863 5862 5860 5857 5855 5853 5851 5848 5846 5843 5841 5838 5835 5832 5830 5826 5823 5820 5818 5815 5813
5890 5889 5888 5887 5886 5885 5883 5882 5881 5880 5878 5876 5874 5872 5871 5869 5868 5866 5864 5863 5861 5859 5857 5855 5853 5851 5849 5847 5844 5841 5838 5836 5833 5831 5828 5825 5822 5819 5816 5813 5810 5807 5804
5884 5884 5883 5882 5881 5879 5878 5877 5875 5874 5872 5871 5869 5867 5866 5864 5862 5860 5858 5856 5855 5853 5851 5848 5846 5844 5842 5839 5837 5834 5831 5828 5825 5823 5820 5817 5814 5810 5807 5804 5801 5798 5795
5879 5878 5877 5876 5875 5873 5872 5871 5869 5868 5866 5864 5863 5861 5859 5858 5856 5853 5851 5849 5848 5846 5843 5841 5839 5837 5834 5832 5829 5826 5824 5821 5817 5814 5811 5808 5805 5801 5798 5795 5791 5788 5785
5872 5871 5870 5869 5868 5867 5865 5864 5862 5861 5859 5857 5856 5854 5852 5851 5848 5846 5844 5842 5840 5838 5835 5833 5831 5829 5826 5823 5820 5817 5815 5812 5809 5805 5802 5799 5796 5792 5789 5785 5781 5778 5775
5865 5864 5863 5862 5861 5860 5858 5856 5855 5853 5851 5850 5848 5847 5845 5843 5841 5838 5836 5833 5831 5829 5827 5825 5822 5820 5817 5814 5811 5808 5806 5803 5799 5796 5792 5789 5786 5782 5779 5775 5771 5768 5764
5857 5856 5856 5854 5853 5852 5851 5849 5847 5845 5843 5842 5840 5838 5837 5835 5832 5830 5827 5825 5822 5819 5817 5815 5813 5810 5807 5804 5801 5798 5795 5792 5789 5786 5782 5779 5776 5772 5768 5764 5761 5757 5753
5849 5848 5847 5846 5845 5844 5842 5840 5839 5837 5835 5834 5832 5830 5828 5826 5824 5821 5819 5816 5813 5810 5808 5805 5802 5799 5797 5794 5791 5788 5784 5781 5778 5775 5772 5768 5765 5761 5757 5754 5750 5746 5742
5841 5840 5839 5837 5836 5835 5833 5832 5830 5829 5827 5825 5823 5821 5819 5817 5815 5812 5809 5806 5803 5800 5798 5795 5792 5789 5786 5783 5780 5777 5773 5770 5767 5764 5760 5757 5753 5749 5746 5742 5739 5735 5731
5832 5831 5830 5828 5827 5826 5824 5823 5821 5820 5818 5816 5814 5812 5809 5807 5805 5802 5799 5796 5793 5790 5787 5785 5782 5778 5775 5772 5769 5766 5762 5759 5755 5752 5748 5745 5741 5737 5734 5730 5727 5724 5720
5823 5823 5821 5820 5818 5817 5815 5813 5812 5810 5808 5806 5804 5802 5799 5797 5795 5792 5789 5786 5783 5780 5778 5775 5772 5768 5764 5761 5758 5755 5751 5747 5743 5739 5736 5732 5729 5725 5722 5718 5715 5711 5708
5814 5813 5812 5810 5808 5807 5805 5804 5802 5800 5798 5796 5794 5792 5789 5787 5784 5782 5779 5776 5773 5770 5767 5764 5761 5758 5754 5750 5747 5743 5739 5735 5731 5727 5723 5719 5716 5712 5709 5706 5702 5699 5696
5804 5803 5802 5800 5798 5797 5795 5793 5791 5790 5788 5785 5783 5781 5779 5776 5774 5771 5768 5765 5762 5759 5756 5753 5749 5746 5742 5739 5735 5731 5727 5723 5718 5714 5710 5706 5703 5699 5696 5693 5690 5687 5684
5794 5793 5791 5789 5788 5786 5784 5783 5781 5779 5777 5775 5772 5770 5768 5765 5763 5760 5757 5754 5751 5748 5745 5741 5738 5734 5731 5727 5723 5719 5714 5710 5706 5702 5698 5695 5691 5688 5685 5682 5678 5675 5672
5784 5782 5780 5779 5777 5775 5773 5772 5770 5768 5766 5764 5762 5760 5757 5754 5751 5749 5745 5742 5740 5737 5734 5730 5726 5722 5718 5714 5710 5706 5702 5698 5694 5690 5686 5683 5679 5676 5673 5670 5667 5663 5660
5774 5772 5770 5768 5767 5765 5763 5761 5759 5757 5755 5753 5751 5749 5746 5743 5741 5738 5735 5732 5729 5726 5722 5718 5714 5710 5706 5701 5698 5694 5690 5686 5682 5678 5674 5671 5668 5665 5661 5658 5655 5651 5648
5763 5762 5760 5759 5757 5756 5754 5752 5750 5747 5745 5743 5740 5738 5735 5732 5729 5727 5724 5721 5717 5714 5710 5706 5702 5698 5693 5689 5685 5682 5678 5674 5670 5666 5663 5659 5656 5653 5649 5646 5643 5639 5636
5752 5751 5750 5748 5747 5745 5743 5741 5739 5737 5734 5732 5729 5727 5724 5721 5718 5715 5711 5708 5705 5701 5697 5693 5689 5685 5681 5677 5674 5670 5666 5663 5659 5655 5651 5648 5644 5641 5637 5634 5631 5627 5624
5742 5741 5739 5738 5736 5735 5733 5732 5729 5727 5724 5721 5719 5716 5713 5709 5706 5702 5699 5696 5693 5689 5685 5680 5676 5673 5669 5666 5662 5658 5654 5651 5647 5643 5639 5636 5633 5629 5626 5622 5619 5615 5613
5731 5730 5729 5728 5726 5725 5723 5721 5718 5716 5714 5711 5708 5705 5701 5698 5694 5691 5687 5684 5680 5676 5672 5668 5664 5661 5658 5654 5650 5646 5643 5639 5635 5631 5628 5624 5621 5618 5614 5611 5608 5604 5601
5721 5720 5719 5717 5716 5714 5712 5710 5708 5705 5703 5700 5697 5693 5690 5687 5683 5679 5676 5672 5668 5664 5660 5657 5653 5650 5646 5642 5638 5635 5631 5627 5623 5620 5616 5613 5610 5606 5603 5600 5597 5593 5590
Wind_Speed
6 6 6 6 7 7 7 7 8 8 9 9 9 9 9 10 10 10 11 11 11 11 11 12 12 13 13 13 13 14 14 15 15 15 16 17 17 17 17 18 18 17 18
7 7 7 7 8 8 8 9 9 10 10 10 11 11 11 11 11 12 12 13 13 13 13 14 14 14 14 15 15 16 16 17 17 17 18 19 19 19 19 19 20 20 20
9 9 9 9 10 10 10 10 11 11 12 12 13 13 13 13 13 13 14 15 15 15 15 15 16 16 15 16 17 18 18 19 19 19 20 20 21 21 21 21 21 22 22
11 11 11 11 11 11 11 12 12 13 13 14 14 14 15 15 15 16 16 17 17 17 17 18 18 18 18 18 19 19 20 21 21 21 21 22 22 23 24 24 24 23 24
14 13 13 13 13 14 14 14 14 14 14 15 15 16 16 17 17 18 18 18 19 19 20 20 20 20 20 21 21 21 22 22 23 23 23 24 25 25 26 26 26 26 26
15 15 15 15 15 15 15 16 16 16 16 17 17 18 18 18 19 19 20 20 20 21 21 22 23 23 23 22 23 23 24 24 25 25 25 26 27 27 27 28 28 29 28
17 16 17 17 17 17 17 17 17 18 18 18 19 19 19 20 21 21 22 22 23 23 23 24 24 24 24 24 25 25 25 26 26 27 28 28 28 29 30 30 31 31 31
19 19 19 19 19 19 18 19 19 19 20 20 20 20 21 22 23 23 24 24 24 25 25 25 25 25 26 26 26 26 27 28 29 30 30 30 30 31 32 32 32 32 32
21 20 20 20 20 20 20 21 21 21 21 22 22 22 23 24 25 25 25 26 26 27 27 27 28 27 27 28 28 29 29 30 31 32 32 32 33 34 34 34 34 33 33
22 22 22 21 21 22 23 23 24 24 24 24 24 25 25 26 26 26 27 27 28 28 29 30 30 30 30 30 31 31 31 32 33 34 34 34 34 35 35 35 35 36 36
23 23 23 23 23 24 25 26 26 26 26 26 26 26 27 27 28 28 29 30 30 31 31 32 32 32 32 32 33 33 34 34 35 36 36 36 36 36 36 37 37 37 37
25 25 25 25 26 26 27 27 27 28 27 27 28 28 28 28 29 30 31 32 32 33 32 33 33 33 33 33 34 35 36 36 37 38 37 37 37 37 37 37 38 38 38
27 27 27 28 28 28 28 28 28 29 29 29 29 29 29 30 30 31 32 32 33 33 33 34 34 35 35 35 36 36 37 37 38 38 39 38 38 39 38 38 39 39 38
28 28 29 29 29 29 29 30 30 30 30 30 31 31 31 31 31 32 33 34 34 34 34 35 35 36 36 36 37 38 38 38 38 39 40 40 40 40 39 39 39 38 38
30 30 30 30 29 30 31 30 30 30 31 31 32 31 31 31 32 33 34 35 35 34 35 35 35 37 37 37 37 37 38 38 39 40 40 40 41 41 40 40 39 38 38
31 31 31 32 32 32 32 31 31 31 32 32 32 33 32 32 32 32 34 35 35 35 36 36 36 36 36 36 37 38 39 40 41 41 42 42 42 41 40 40 39 39 39
32 32 32 32 33 33 33 33 33 33 33 33 33 33 34 33 33 34 35 35 36 36 36 37 36 36 37 38 39 39 40 41 41 42 42 42 42 41 40 40 39 39 39
33 34 34 34 34 35 35 34 34 33 34 34 34 35 35 35 35 36 35 36 37 37 37 37 37 37 38 39 40 41 42 42 43 43 42 41 41 40 39 38 39 39 39
34 34 34 34 34 35 35 34 34 35 35 35 35 35 36 36 37 37 37 37 37 37 38 38 38 38 39 40 41 42 42 42 42 41 40 40 39 38 38 39 39 40 39
34 34 34 34 34 35 35 34 35 35 35 35 35 35 36 37 37 38 38 38 37 37 37 38 38 39 40 40 41 41 41 41 40 39 38 37 38 38 38 39 39 38 38
35 34 33 33 33 33 33 33 34 35 35 35 36 37 38 37 38 38 38 38 38 38 39 39 40 40 40 41 41 40 40 39 39 38 37 37 37 38 38 38 38 37 37
34 34 33 33 33 33 33 33 34 35 36 36 37 38 38 38 37 37 37 38 39 40 40 40 39 39 39 40 40 39 39 39 38 38 38 39 39 39 40 39 39 38 37
33 33 33 33 33 32 33 33 34 34 35 35 35 35 36 36 36 37 37 38 39 40 40 40 39 39 39 39 39 39 39 39 39 39 39 39 39 39 39 38 38 38 37
32 32 33 33 32 33 34 34 35 35 35 34 34 35 35 36 37 37 38 39 40 40 40 40 39 38 39 39 39 39 39 38 38 38 38 38 37 38 38 37 37 37 36
31 31 31 32 33 34 34 35 35 35 34 34 35 35 36 37 38 39 39 39 39 39 39 38 38 38 38 38 37 37 37 37 37 38 38 37 37 37 37 36 36 35 35
31 31 32 33 34 34 35 35 35 35 34 35 36 37 37 38 39 39 39 38 38 38 38 37 37 37 36 36 36 37 37 37 37 38 38 38 37 36 36 35 35 34 34
Wind_Direction
319 312 306 298 293 291 291 293 292 292 295 297 296 297 299 299 300 299 299 298 300 304 305 307 309 312 312 315 317 317 317 317 315 314 311 313 314 314 314 314 311 308 307
309 307 306 305 302 296 297 295 296 295 294 294 295 294 294 295 296 296 296 297 299 302 304 304 304 306 307 310 312 313 313 312 312 309 308 309 309 310 308 307 308 308 307
302 300 299 300 302 299 296 294 292 294 293 294 296 296 297 296 294 295 295 296 297 298 299 300 301 303 304 305 308 310 311 311 309 308 307 307 307 306 305 304 304 304 304
296 295 294 295 296 296 294 292 291 292 293 293 293 294 295 294 294 296 295 293 294 296 298 297 298 300 300 301 304 306 308 309 308 307 307 306 305 304 303 302 301 300 300
287 288 290 291 291 292 292 291 290 290 291 292 291 291 291 291 292 294 296 294 292 294 296 297 296 297 297 298 300 301 303 305 306 306 305 305 304 304 302 300 299 299 299
285 285 284 285 285 288 289 289 289 290 290 290 290 289 289 290 291 293 295 294 293 294 294 295 296 295 296 297 298 299 300 301 303 305 305 304 304 303 302 301 299 298 298
282 281 282 283 284 285 286 287 287 287 288 289 290 292 292 292 293 295 298 297 295 294 294 295 297 296 295 294 294 295 297 298 300 302 303 302 303 302 300 299 298 297 297
280 279 279 282 282 283 284 287 286 285 287 288 289 290 292 293 294 295 295 296 295 292 292 292 294 294 293 294 295 297 299 299 300 302 302 301 301 301 299 298 298 298 297
278 278 278 278 280 282 283 286 287 286 286 285 287 288 290 291 292 292 291 291 291 292 291 290 290 293 293 293 294 295 297 298 299 300 301 301 301 300 299 298 298 299 298
277 278 277 276 278 280 282 283 284 284 283 284 287 289 289 290 291 291 290 291 292 291 291 291 291 292 291 292 293 293 294 295 296 297 298 299 299 300 299 299 298 298 298
278 278 280 280 280 280 282 282 282 282 283 285 287 288 289 290 291 292 292 292 293 292 291 291 291 292 291 291 293 293 293 294 294 295 296 297 297 297 297 298 298 298 298
277 279 280 281 281 281 282 283 282 282 284 286 287 288 289 290 291 292 292 293 293 291 290 290 290 290 290 291 293 294 293 293 294 295 295 296 296 296 298 298 297 297 297
277 278 280 281 281 282 283 282 283 284 285 285 285 286 287 289 289 291 292 292 291 290 292 292 290 290 290 290 291 293 293 293 294 294 295 294 295 296 296 296 297 297 296
276 278 279 279 280 282 282 282 283 284 284 284 285 285 286 287 288 290 290 291 290 291 292 291 290 290 292 292 292 292 293 293 293 294 295 294 294 294 294 295 295 296 296
275 277 279 280 281 281 281 281 282 282 283 284 284 285 285 285 287 289 290 291 291 291 292 291 292 293 293 293 293 293 294 294 294 295 296 295 294 293 293 294 295 295 296
275 277 278 280 281 281 281 281 282 282 283 284 284 284 285 286 288 289 290 291 291 291 291 292 293 294 292 292 293 294 294 294 295 296 296 295 295 294 293 293 293 294 295
275 276 277 279 281 281 281 281 282 282 283 283 284 285 286 287 288 289 289 289 291 291 291 292 293 293 293 295 296 296 296 295 295 294 295 295 294 293 292 292 293 294 294
276 277 278 279 281 281 281 281 280 281 283 284 284 285 285 286 288 289 289 290 290 291 292 293 294 294 295 296 296 296 296 296 296 294 293 293 293 293 292 292 292 293 293
277 277 278 279 280 280 280 280 281 282 282 283 284 284 286 287 288 288 289 291 292 292 293 294 294 294 294 294 294 295 296 296 296 295 293 293 293 292 292 293 292 292 291
276 277 277 278 279 279 280 281 281 282 282 284 285 285 287 287 287 289 291 293 294 295 295 295 295 296 295 295 295 295 296 296 295 295 294 294 293 293 293 292 292 292 290
277 277 278 280 279 281 282 282 282 282 284 285 286 288 289 289 289 291 291 292 293 294 295 296 296 296 296 296 295 295 295 295 295 294 294 294 294 293 293 293 294 293 293
279 281 281 279 280 282 285 286 286 286 286 286 287 288 290 290 290 291 291 292 294 295 295 296 296 295 295 296 296 295 294 295 294 294 294 294 294 293 294 293 293 293 292
280 280 281 281 281 285 287 288 289 288 288 288 288 289 291 291 291 291 292 294 295 295 296 296 295 295 296 296 295 295 295 294 294 294 295 294 294 295 296 295 295 294 293
280 279 279 280 283 285 287 288 289 289 288 288 288 290 292 293 293 293 295 295 296 296 297 297 295 295 295 295 295 295 296 294 295 296 295 294 294 295 296 296 295 294 293
280 279 280 282 283 285 287 288 288 287 288 289 289 291 293 294 294 294 295 296 296 296 297 297 296 296 297 297 296 296 296 296 295 295 295 293 293 294 295 295 295 293 292
279 280 281 282 283 284 286 287 287 286 288 289 290 292 294 295 296 296 295 296 297 297 297 297 298 297 297 296 295 296 296 296 296 295 293 293 294 294 295 295 294 294 292